OPS 4682 DEB, 19113

Orbit data source: Space-Track

OPS 4682 DEB, 19113 is space debris in LEO originally from a launch on Sat, 03 Apr 1965 UTC launched from the Air Force Western Test Range (AFWTR). Debris objects in space refer to the collection of defunct objects orbiting the Earth. Examples of debris include non-operational satellites, rocket bodies, and fragments generated from explosions, collisions, or faulty payload assembly.

Loading next visibility...
Identifier
19113, 1965-027AQ
Orbit
LEO
Country
Flag of USUS
Related business
Manufacturer
Unknown
Mission
Spacecraft
Bus & Motor
Unknown
Mass
Unknown
Launch date (UTC)
1965-04-03 (61 years ago)
Launch vehicle
Unknown
Launch site
Air Force Western Test Range (AFWTR)
Object type
Payload
Rocket body
Debris
Shape & HBR
Unknown shape, 0.1 m
Radar Cross Section
Small (<0.1 m²)

Expand to show TLE details & history
Last TLE update: 19 hours ago

TLE from 19 hours ago
0 OPS 4682 DEB
1 19113U 65027AQ  25293.18312316  .00000519  00000-0  15587-2 0  9994
2 19113  90.2541   8.4649 0029232 347.2623  43.8734 13.05954710603636
Epoch: 2025-10-20T04:23Z
TLE epoch observation values (Epoch: 2025-10-20T04:23:41.841Z)
Latitude
31.42004°
Longitude
-86.50298°
Altitude
1,226.833 km
Speed
7.251 km/s
True Right ascension
00h 33m 14s
True Declination
31° 16' 36"
Sunlit
Object was in full shadow at epoch
Visualization orbit readout
Latitude
Unknown
Longitude
Unknown
Altitude
Unknown
Speed
Unknown
Apparent Right ascension
Unknown
Apparent Declination
Unknown
Sunlit
N/A
Visualization observer readout
Local Sidereal Time
18:05:31
Azimuth
Unknown
Elevation
Unknown
Doppler factor
Unknown
Orbital elements
Apogee altitude
1,258.22 km
Perigee altitude
1,213.705 km
Semi-major axis
7,614.1 km
Eccentricity
0.00292
Inclination
90.2541°
RAAN
8.4649°
Arg. of periapsis
347.2623°
True anomaly
44.10617°
Mean anomaly
43.8734°
Eccentric anomaly
43.98972°
Mean motion
3.26675 °/min
Orbital period
110.2 mins
BSTAR
0.0015587
Loading maneuver chart data...
Computing Atmospheric mass density...
Loading historical data...
Loading historical data...
Loading historical data...
Loading historical data...
Loading historical data...
Loading historical data...
Loading historical data...

Documentation

Showing up to 5 results
|